Regional Weather Roundup
Issued by NWS Midland/Odessa, TX

Home | Current Version | Previous Version | Text Only | Print | Product List | Glossary On
Versions: 1 2 3 4 5 6 7 8 9 10 11 12 13 14 15 16 17 18 19 20 21 22 23 24 25 26 27 28 29 30 31 32 33 34 35 36 37 38 39 40 41 42 43 44 45 46 47 48 49 50
000
ASUS44 KMAF 301710
RWRMAF
MIDLAND AREA WEATHER ROUNDUP
NATIONAL WEATHER SERVICE MIDLAND TX
1200 PM CDT SAT JUL 30 2016

...IN SOUTHWEST TEXAS AND SOUTHEAST NEW MEXICO...

CITY           SKY/WX    TMP DP  RH WIND       PRES   REMARKS
ALPINE         PTSUNNY   83  57  41 SW12      30.20F
ANDREWS        FAIR      86  60  40 S12       30.09F
ARTESIA        SUNNY     84  61  45 E6G15     30.10S
BIG SPRING     SUNNY     86  63  46 S8        30.10S
CARLSBAD       SUNNY     85  59  41 VRB5      30.07S
DRYDEN           N/A     86  65  49 S7        30.04S
FORT STOCKTON  MOSUNNY   89  61  38 SW10      30.06F
GUAD PASS      SUNNY     80  52  37 E10       30.22S
HOBBS          MOSUNNY   84  59  42 SE8G16    30.13S
MARFA          SUNNY     77  61  57 SE10      30.20F
MIDLAND AIRPK  SUNNY     88  61  39 S12G20    30.09S
MIDLAND INTL   SUNNY     88  62  41 S16       30.08S
ODESSA         SUNNY     86  61  42 S16       30.10S
PECOS          SUNNY     89  59  35 SE6       30.04F
PRESIDIO       FAIR      85  63  46 SE7       30.07F
SEMINOLE       SUNNY     88  57  35 S9        30.11F
SNYDER           N/A     87  64  46 S8        30.07F
WINK           SUNNY     87  62  43 SE13G18   30.05F
$$
...OTHER STATIONS IN TEXAS...

CITY           SKY/WX    TMP DP  RH WIND       PRES   REMARKS
ABILENE        SUNNY     89  68  49 S8        30.06R
AMARILLO       MOSUNNY   83  61  47 S16       30.10F
AUSTIN         MOSUNNY   89  72  56 S13       30.03S
BROWNSVILLE    MOSUNNY   94  74  52 SE15G23   30.01S HX 104
CORPUS CHRISTI PTSUNNY   93  74  53 SE12G20   30.01S HX 103
DALLAS FTW     MOSUNNY   93  69  45 SW5       30.00S
DEL RIO        SUNNY     87  70  56 SE14G20   30.00F
EL PASO        MOSUNNY   84  59  42 SE7       30.09S
HOUSTON INT    MOSUNNY   92  74  55 W6        30.03S HX 101
LUBBOCK        CLOUDY    85  63  47 SW14G20   30.10S
SAN ANGELO     SUNNY     90  65  43 S9        30.05S
SAN ANTONIO    MOSUNNY   87  69  54 SW7       30.05F
WACO           SUNNY     93  67  42 W10       30.02S
WICHITA FALLS  NOT AVBL
$$
...OTHER LOCATIONS IN NEW MEXICO...

CITY           SKY/WX    TMP DP  RH WIND       PRES   REMARKS
ALAMAGORDO     SUNNY     84  55  37 S8        30.12F
ALBUQUERQUE    MOSUNNY   78  54  43 VRB7      30.18F
CANNON AFB     SUNNY     83  61  45 SW10      30.15F
CLOVIS         SUNNY     82  61  47 S12G20    30.15F
HOLLOMAN AFB   SUNNY     85  58  39 VRB5      30.09F
ROSWELL        SUNNY     88  57  34 S13       30.09F
RUIDOSO          N/A     77  46  33 S9G17     30.32F
SANTA FE       SUNNY     79  48  33 W3        30.24S
TRUTH OR CONSE MOSUNNY   83  54  36 S9        30.14F
TUCUMCARI      SUNNY     86  60  41 SW16G23   30.09F
$$



USA.gov is the U.S. government's official web portal to all federal, state and local government web resources and services.